Location: Acequia del Cap
(41.7000°N, 0.6167°E)
Time: 00:47:23
(UTC+00:00)

Meteor 1-12 Rocket - Pass Details

Date: 07 August 2020
Orbit: 854 x 927 km, 81.2° (Epoch: 22 September)

Event Time Altitude Azimuth Distance (km) Brightness Sun altitude
Exits shadow 01:11:31 81° 2° (N) 931 4.3 -29.9°
Drops below altitude 10° 01:17:14 10° 10° (N) 2,630 7.7 -29.5°
Sets 01:19:44 0° 10° (N) 3,581 8.6 -29.3°
